[[{"header":{"parameterUnit":"m.s-1","parameterCategory":1,"la1":30.2991,"la2":30.254,"lo1":-89.0895,"lo2":-89.0444,"dy":0.0017,"dx":0.0017,"nx":28,"ny":28,"refTime":"2024-05-24T03:00:00:Z","depth":0,"parameterNumber":2,"parameterNumberName":"U-component_of_WINDS"},"data":[0,0,0,0,0,0,0,0,0,0,0,0,0,0,0,0,0,0,0,0,0,0,0,0,0,0,0,0,0,0,0,0,0,0,0,0,0,0,0,0,0,0,0,0,0,0,0,0,0,0,0,0,0,0,0,0,0,0,0.3866,0.3866,0,0.3942,0.3943,0.3944,0.3968,0.3968,0.3967,0.3967,0.4047,0.405,0.4052,0,0,0,0,0,0,0,0,0,0,0,0,0,0.3742,0.3744,0.3866,0.3867,0.3867,0.3942,0.3943,0.3944,0.3968,0.3968,0.3967,0.3967,0.4046,0.4049,0.4052,0,0,0,0,0,0,0,0,0,0,0,0,0,0.3805,0.3745,0.3865,0.3888,0.3891,0.3942,0.3943,0.3944,0.3968,0.3968,0.3967,0.3966,0.4045,0.4049,0.4053,0.4087,0,0,0.4064,0.4066,0,0,0,0,0,0,0,0,0.3801,0.3809,0.3884,0.3887,0.389,0.3945,0.3929,0.3992,0.3968,0.3939,0.3967,0.3966,0.4014,0.402,0.4036,0.409,0.4094,0.4064,0.4067,0.4068,0.4069,0,0,0,0,0,0,0,0.3797,0.3806,0.3896,0.3885,0.3889,0.3895,0.3904,0.3941,0.3979,0.3941,0.3943,0.3952,0.4015,0.4032,0.4038,0.4095,0.4064,0.4068,0.407,0.4071,0.4181,0.4182,0,0,0,0,0,0,0.3788,0.3802,0.3893,0.3898,0.3843,0.3898,0.3907,0.3928,0.3978,0.3985,0.3952,0.3953,0.4026,0.4033,0.4041,0.4084,0.4068,0.4072,0.4074,0.4181,0.4182,0.4182,0,0,0,0,0,0,0.3786,0.3796,0.389,0.3851,0.3863,0.3901,0.3924,0.393,0.3946,0.3986,0.3993,0.3962,0.4026,0.4035,0.4075,0.4087,0.4073,0.4077,0.418,0.4181,0.4182,0.417,0,0,0,0,0,0,0.3782,0.3795,0.3808,0.3851,0.3865,0.3923,0.3924,0.3932,0.3952,0.3954,0.3998,0.4004,0.4026,0.4069,0.4079,0.4092,0.408,0.4179,0.418,0.4182,0.417,0.4171,0.4172,0,0,0,0,0,0.3777,0.3802,0.3809,0.3819,0.3882,0.3923,0.3932,0.3956,0.3953,0.3967,0.3992,0.4003,0.4084,0.4073,0.4084,0.4098,0.4178,0.418,0.4182,0.4169,0.4171,0.4172,0,0,0,0,0,0,0.3761,0.3808,0.3816,0.3855,0.3885,0.3927,0.3945,0.3956,0.3988,0.3988,0.4017,0.4026,0.4064,0.4085,0.4072,0.4134,0.4132,0.4135,0.4119,0.412,0.4121,0.4116,0.4083,0,0,0,0,0,0.3761,0.379,0.383,0.3861,0.3876,0.3908,0.3927,0.3942,0.3975,0.3988,0.4016,0.4048,0.408,0.4101,0.4134,0.4173,0.4183,0.4188,0.4189,0.4189,0.4193,0.4215,0.4218,0.4187,0.4187,0.4187,0,0,0.3763,0.3793,0.381,0.3859,0.3884,0.3914,0.3918,0.395,0.3973,0.3993,0.4032,0.4054,0.4091,0.413,0.4149,0.4149,0.4203,0.4191,0.4192,0.4195,0.4217,0.422,0.4223,0.4189,0.4188,0.4188,0,0,0.3783,0.3807,0.3836,0.3861,0.3898,0.3919,0.3926,0.3967,0.3982,0.4021,0.4037,0.4064,0.412,0.4146,0.4166,0.4194,0.4205,0.4204,0.4209,0.4231,0.4233,0.4235,0.4246,0.4249,0.4206,0.4206,0.4206,0,0.3781,0.3826,0.3849,0.388,0.3901,0.392,0.3949,0.3972,0.4018,0.4033,0.4032,0.4101,0.4128,0.4174,0.418,0.4196,0.4205,0.4199,0.4231,0.4233,0.4236,0.4246,0.425,0.4206,0.4206,0.4206,0.4206,0,0.3822,0.3853,0.3871,0.3915,0.3938,0.3968,0.3996,0.4017,0.403,0.4052,0.4091,0.4123,0.4162,0.4174,0.4188,0.4222,0.4221,0.4225,0.4224,0.4238,0.4248,0.4253,0.4206,0.4206,0.4206,0.4206,0,0,0.3834,0.3889,0.3896,0.3916,0.3958,0.3983,0.4013,0.405,0.4068,0.4099,0.4126,0.4172,0.4176,0.4199,0.4215,0.4234,0.4255,0.4236,0.4237,0.4239,0.4295,0.4293,0.4297,0.4262,0.4263,0.4263,0.4292,0,0.3859,0.3914,0.3936,0.3981,0.401,0.4028,0.4054,0.4083,0.4104,0.4132,0.4155,0.4187,0.4189,0.4203,0.4223,0.4248,0.4267,0.4246,0.4288,0.4289,0.4279,0.4302,0.43,0.4326,0.4296,0.4297,0.4298,0,0.3896,0.3927,0.3974,0.4013,0.4026,0.405,0.4086,0.4112,0.4145,0.4159,0.4184,0.4199,0.4233,0.4228,0.4275,0.426,0.4278,0.4293,0.4295,0.4301,0.4295,0.4309,0.4334,0.4339,0.4304,0.4304,0.4303,0,0.3901,0.3954,0.3989,0.4006,0.4051,0.4068,0.4088,0.412,0.4141,0.4173,0.4187,0.4222,0.4241,0.4268,0.4293,0.4287,0.4337,0.4334,0.435,0.4349,0.4361,0.436,0.439,0.4371,0.4371,0.4371,0.437,0,0.3927,0.3956,0.3992,0.4014,0.4047,0.4071,0.4103,0.4124,0.4153,0.418,0.4197,0.4222,0.4252,0.4281,0.43,0.4336,0.4345,0.4357,0.4362,0.4356,0.4355,0.437,0.4369,0.4372,0.4371,0.4371,0.4371,0,0.3938,0.3964,0.4004,0.4043,0.4054,0.4076,0.4111,0.4133,0.4153,0.4187,0.4196,0.4229,0.4264,0.4291,0.4336,0.4349,0.4387,0.4392,0.4376,0.4379,0.4393,0.4392,0.4435,0.4442,0.4416,0.4417,0.4417,0,0.3954,0.3977,0.4018,0.4037,0.4057,0.4087,0.4108,0.4133,0.4155,0.4194,0.4212,0.4247,0.4277,0.4332,0.436,0.4395,0.4402,0.4414,0.4407,0.4401,0.4403,0.4402,0.4404,0.4416,0.4416,0.4416,0.4416,0,0.398,0.3991,0.4021,0.4055,0.408,0.4108,0.4136,0.4151,0.4181,0.4204,0.424,0.4263,0.4309,0.4344,0.4382,0.4403,0.4415,0.4418,0.4423,0.4418,0.4408,0.4415,0.4379,0.4417,0.4417,0.4417,0.4417,0.4417,0.3994,0.4015,0.4048,0.408,0.4104,0.413,0.4153,0.4176,0.4206,0.4245,0.4258,0.4295,0.4327,0.4379,0.44,0.4429,0.443,0.4438,0.444,0.4442,0.4442,0.4402,0.4436,0.4436,0.4436,0.4436,0.4436,0,0.4022,0.4043,0.4073,0.4112,0.4138,0.4145,0.4177,0.4198,0.423,0.4259,0.4288,0.4329,0.4363,0.4394,0.443,0.4447,0.4454,0.4456,0.4456,0.446,0.4439,0.4431,0.445,0.445,0.445,0.445,0.445,0.445,0.4039,0.4075,0.409,0.4137,0.4159,0.4195,0.4212,0.4237,0.426,0.4304,0.4333,0.4352,0.4382,0.442,0.4452,0.446,0.4473,0.4474,0.4484,0.4464,0.4462,0.446,0.4453,0.4477,0.4477,0.4503,0.4503,0.4504]},{"header":{"parameterUnit":"m.s-1","parameterCategory":1,"la1":30.2991,"la2":30.254,"lo1":-89.0895,"lo2":-89.0444,"dy":0.0017,"dx":0.0017,"nx":28,"ny":28,"refTime":"2024-05-24T03:00:00:Z","depth":0,"parameterNumber":3,"parameterNumberName":"V-component_of_WINDS"},"data":[0,0,0,0,0,0,0,0,0,0,0,0,0,0,0,0,0,0,0,0,0,0,0,0,0,0,0,0,0,0,0,0,0,0,0,0,0,0,0,0,0,0,0,0,0,0,0,0,0,0,0,0,0,0,0,0,0,0,3.5523,3.5523,0,3.5493,3.5493,3.5493,3.5487,3.5487,3.5487,3.5488,3.5452,3.545,3.5449,0,0,0,0,0,0,0,0,0,0,0,0,0,3.5571,3.557,3.5523,3.5523,3.5523,3.5494,3.5493,3.5493,3.5487,3.5487,3.5487,3.5488,3.5452,3.5451,3.5449,0,0,0,0,0,0,0,0,0,0,0,0,0,3.5546,3.557,3.5523,3.5516,3.5515,3.5494,3.5493,3.5493,3.5487,3.5487,3.5487,3.5488,3.5452,3.5451,3.5449,3.5431,0,0,3.5444,3.5443,0,0,0,0,0,0,0,0,3.5548,3.5545,3.5518,3.5517,3.5516,3.5494,3.5497,3.5472,3.5487,3.5497,3.5488,3.5488,3.5465,3.5462,3.5456,3.5429,3.5427,3.5443,3.5442,3.5442,3.5441,0,0,0,0,0,0,0,3.5549,3.5546,3.5511,3.5517,3.5516,3.5513,3.551,3.5492,3.5479,3.5496,3.5496,3.5493,3.5465,3.5458,3.5455,3.5427,3.5443,3.5442,3.5441,3.544,3.5383,3.5383,0,0,0,0,0,0,3.5553,3.5547,3.5512,3.551,3.5533,3.5512,3.5509,3.5501,3.548,3.5477,3.5493,3.5493,3.546,3.5457,3.5454,3.5431,3.5442,3.544,3.5439,3.5384,3.5383,3.5383,0,0,0,0,0,0,3.5554,3.555,3.5514,3.5529,3.5524,3.5511,3.5502,3.55,3.5493,3.5477,3.5474,3.5488,3.5461,3.5456,3.5437,3.543,3.5439,3.5438,3.5384,3.5383,3.5383,3.5385,0,0,0,0,0,0,3.5555,3.555,3.5544,3.5529,3.5523,3.5499,3.5502,3.5499,3.549,3.549,3.5472,3.5469,3.5461,3.5439,3.5435,3.5427,3.5436,3.5385,3.5384,3.5383,3.5386,3.5385,3.5384,0,0,0,0,0,3.5557,3.5545,3.5544,3.554,3.5516,3.5498,3.5495,3.5487,3.549,3.5483,3.5473,3.5469,3.5431,3.5438,3.5432,3.5424,3.5385,3.5384,3.5383,3.5386,3.5385,3.5384,0,0,0,0,0,0,3.5558,3.5543,3.5542,3.5524,3.5513,3.5497,3.5489,3.5486,3.5472,3.5472,3.5462,3.5457,3.5439,3.5429,3.5437,3.5405,3.5408,3.5406,3.5412,3.5411,3.541,3.5412,3.5435,0,0,0,0,0,3.5557,3.5546,3.5532,3.5518,3.5513,3.5502,3.5494,3.5489,3.5476,3.547,3.5459,3.5445,3.5429,3.5419,3.5405,3.5384,3.538,3.5376,3.5375,3.5374,3.5372,3.5361,3.5359,3.5379,3.5379,3.5379,0,0,3.5553,3.5543,3.5537,3.5518,3.5509,3.5496,3.5498,3.5484,3.5474,3.5468,3.5449,3.544,3.5424,3.5404,3.5394,3.5395,3.5366,3.5373,3.5373,3.5371,3.5359,3.5358,3.5356,3.5379,3.5379,3.5379,0,0,3.554,3.5532,3.552,3.551,3.5497,3.549,3.5487,3.5472,3.5466,3.5448,3.5443,3.543,3.5404,3.5393,3.5383,3.5366,3.5363,3.5362,3.5356,3.5345,3.5344,3.5342,3.5336,3.5334,3.536,3.536,3.536,0,3.5537,3.5519,3.5513,3.55,3.5492,3.5488,3.5474,3.5465,3.5446,3.544,3.5442,3.541,3.5398,3.5376,3.5372,3.5364,3.536,3.5364,3.5345,3.5343,3.5342,3.5335,3.5333,3.536,3.536,3.536,3.536,0,3.5516,3.5503,3.5495,3.5479,3.547,3.5456,3.5447,3.5438,3.5434,3.5426,3.5407,3.5393,3.5376,3.537,3.5365,3.5347,3.5348,3.5347,3.535,3.534,3.5334,3.5331,3.536,3.536,3.536,3.536,0,0,3.5502,3.5484,3.5481,3.5474,3.5459,3.5448,3.5434,3.5419,3.5411,3.5398,3.5386,3.5364,3.5364,3.5354,3.5347,3.5337,3.5325,3.5338,3.5337,3.5336,3.5303,3.5303,3.5301,3.5322,3.5322,3.5321,3.5304,0,3.5487,3.5465,3.5459,3.5439,3.5427,3.5423,3.541,3.5399,3.5391,3.5379,3.5369,3.5355,3.5355,3.5349,3.5339,3.5328,3.5318,3.5329,3.5309,3.5308,3.5314,3.5298,3.5298,3.5283,3.5302,3.5301,3.5301,0,3.5467,3.5456,3.5435,3.5422,3.5417,3.5406,3.5391,3.538,3.5366,3.5361,3.535,3.5345,3.5329,3.5333,3.531,3.5318,3.5309,3.5303,3.5302,3.5299,3.5304,3.5295,3.5278,3.5275,3.5297,3.5298,3.5298,0,3.5459,3.5439,3.5424,3.5418,3.5402,3.5394,3.5387,3.5374,3.5365,3.5352,3.5346,3.533,3.5321,3.5308,3.5298,3.5302,3.5276,3.5279,3.5271,3.5271,3.5265,3.5265,3.5246,3.526,3.526,3.526,3.526,0,3.5443,3.543,3.542,3.5411,3.5397,3.5389,3.5375,3.5367,3.5355,3.5343,3.5338,3.5327,3.5315,3.5301,3.5293,3.5275,3.5271,3.5265,3.5263,3.5266,3.5267,3.526,3.526,3.5259,3.5259,3.5259,3.5259,0,3.5432,3.5425,3.5408,3.5395,3.5391,3.5381,3.5369,3.5359,3.5352,3.5337,3.5332,3.532,3.5304,3.5293,3.5272,3.5266,3.5247,3.5245,3.5252,3.5251,3.5243,3.5244,3.5218,3.5214,3.5231,3.523,3.523,0,3.5422,3.5413,3.5399,3.5392,3.5385,3.5373,3.5364,3.5356,3.5347,3.5331,3.5323,3.5307,3.5294,3.5268,3.5256,3.524,3.5237,3.5229,3.5234,3.5237,3.5237,3.5238,3.5236,3.5228,3.5228,3.5228,3.5228,0,3.5405,3.5403,3.5392,3.5379,3.537,3.5359,3.5348,3.5342,3.5332,3.5322,3.5306,3.5296,3.5276,3.5259,3.5242,3.5232,3.5228,3.5227,3.5224,3.5226,3.5231,3.5228,3.525,3.5227,3.5227,3.5227,3.5227,3.5227,3.5395,3.5386,3.5376,3.5363,3.5355,3.5345,3.5335,3.5327,3.5315,3.5299,3.5294,3.5278,3.5264,3.5241,3.5231,3.5217,3.5217,3.5213,3.5212,3.5211,3.5211,3.5233,3.5213,3.5213,3.5213,3.5213,3.5214,0,3.5378,3.5371,3.536,3.5346,3.5336,3.5335,3.5323,3.5314,3.5301,3.5289,3.5277,3.5259,3.5243,3.523,3.5213,3.5205,3.5202,3.52,3.5201,3.5199,3.5212,3.5216,3.5203,3.5203,3.5203,3.5203,3.5203,3.5203,3.5368,3.5354,3.535,3.5331,3.5323,3.5309,3.5302,3.5293,3.5283,3.5264,3.5252,3.5244,3.5232,3.5214,3.5199,3.5196,3.519,3.5188,3.5184,3.5197,3.5198,3.5199,3.5203,3.5187,3.5187,3.5173,3.5172,3.5172]}]]